Leesburg, VA

8:51 PM EDT on August 19, 2019 (GMT -0400)
Leesburg Executive

Weather History for KJYO - April, 2019

Change the Weather History Date:

Friday, April 5, 2019

  Actual Average (KIAD) Record (KIAD)
Temperature  
Mean Temperature 47 °F -  
Max Temperature 53 °F 60 °F 86 °F (2010)
Min Temperature 41 °F 39 °F 22 °F (1965)
Degree Days  
Heating Degree Days 18    
Moisture  
Dew Point 42 °F    
Average Humidity 88    
Maximum Humidity 100    
Minimum Humidity 47    
Precipitation  
Precipitation 0.00 in - - ()
Sea Level Pressure  
Sea Level Pressure 30.31 in    
Wind  
Wind Speed 3 mph (ENE)    
Max Wind Speed 9 mph    
Max Gust Speed -    
Visibility 8 miles    
Events      
Averages and records for this station are not official NWS values.
T = Trace of Precipitation, MM = Missing Value Source: NWS Daily Summary

Daily Weather History Graph

Daily Weather History Graph

Search for Another Location

Airport or City:

Astronomy

Apr. 05, 2019 Rise Set
Actual Time 6:48 AM EDT 7:37 PM EDT
Civil Twilight 6:21 AM EDT 8:04 PM EDT
Nautical Twilight 5:49 AM EDT 8:36 PM EDT
Astronomical Twilight 5:16 AM EDT 9:10 PM EDT
Moon 7:19 AM EDT (4/5) 8:01 PM EDT (4/5)
Length of Visible Light 13h 42m
Length of Day
12h 48m
New Moon, 0% of the Moon is Illuminated
Apr 5
New Moon
Apr 12
First Quarter
Apr 19
Full
Apr 26
Last Quarter
May 4
New

Hourly Weather History & Observations

Time (EDT) Temp. Windchill Dew Point Humidity Pressure Visibility Wind Dir Wind Speed Gust Speed Precip Events Conditions
12:15 AM 53.6 °F - 35.6 °F 51% 30.36 in 10.0 mi Calm Calm - N/A   Clear
12:35 AM 53.6 °F - 35.6 °F 51% 30.36 in 10.0 mi ESE 3.5 mph - N/A   Clear
12:55 AM 53.6 °F - 35.6 °F 51% 30.36 in 10.0 mi East 4.6 mph - N/A   Clear
1:15 AM 51.8 °F - 37.4 °F 58% 30.36 in 10.0 mi Calm Calm - N/A   Clear
1:35 AM 53.6 °F - 33.8 °F 47% 30.35 in 10.0 mi East 3.5 mph - N/A   Clear
1:55 AM 53.6 °F - 33.8 °F 47% 30.35 in 10.0 mi Calm Calm - N/A   Clear
2:15 AM 50.0 °F - 39.2 °F 66% 30.35 in 10.0 mi Calm Calm - N/A   Scattered Clouds
2:35 AM 51.8 °F - 35.6 °F 54% 30.35 in 10.0 mi Calm Calm - N/A   Mostly Cloudy
2:55 AM 48.2 °F - 41.0 °F 76% 30.35 in 10.0 mi Calm Calm - N/A   Overcast
3:15 AM 51.8 °F - 35.6 °F 54% 30.33 in 10.0 mi ENE 4.6 mph - N/A   Overcast
3:35 AM 51.8 °F - 35.6 °F 54% 30.33 in 10.0 mi NE 4.6 mph - N/A   Overcast
3:55 AM 51.8 °F - 37.4 °F 58% 30.35 in 10.0 mi Calm Calm - N/A   Overcast
4:15 AM 50.0 °F - 41.0 °F 71% 30.36 in 10.0 mi Calm Calm - N/A   Overcast
4:35 AM 50.0 °F - 41.0 °F 71% 30.36 in 10.0 mi Calm Calm - N/A   Overcast
4:55 AM 50.0 °F - 41.0 °F 71% 30.36 in 10.0 mi Calm Calm - N/A   Overcast
5:15 AM 48.2 °F - 42.8 °F 82% 30.37 in 5.0 mi Calm Calm - N/A   Overcast
5:35 AM 46.4 °F 45.2 °F 42.8 °F 87% 30.36 in 7.0 mi ENE 3.5 mph - N/A   Overcast
5:55 AM 46.4 °F 45.2 °F 44.6 °F 93% 30.36 in 7.0 mi ENE 3.5 mph - N/A   Overcast
6:15 AM 44.6 °F 42.2 °F 44.6 °F 100% 30.35 in 10.0 mi NE 4.6 mph - N/A   Overcast
6:35 AM 44.6 °F - 44.6 °F 100% 30.37 in 7.0 mi Calm Calm - N/A   Overcast
6:55 AM 44.6 °F - 44.6 °F 100% 30.38 in 7.0 mi Calm Calm - N/A   Overcast
7:15 AM 44.6 °F 42.2 °F 44.6 °F 100% 30.38 in 7.0 mi ENE 4.6 mph - N/A   Overcast
7:35 AM 44.6 °F 43.1 °F 44.6 °F 100% 30.38 in 5.0 mi East 3.5 mph - N/A   Overcast
7:55 AM 44.6 °F 41.4 °F 44.6 °F 100% 30.37 in 7.0 mi East 5.8 mph - N/A   Overcast
8:15 AM 44.6 °F 42.2 °F 44.6 °F 100% 30.37 in 7.0 mi East 4.6 mph - N/A   Overcast
8:35 AM 44.6 °F 42.2 °F 44.6 °F 100% 30.38 in 10.0 mi ESE 4.6 mph - N/A   Overcast
8:55 AM 44.6 °F 43.1 °F 44.6 °F 100% 30.38 in 10.0 mi ESE 3.5 mph - N/A   Overcast
9:15 AM 44.6 °F - 44.6 °F 100% 30.38 in 10.0 mi Calm Calm - N/A   Overcast
9:35 AM 44.6 °F - 44.6 °F 100% 30.38 in 10.0 mi Calm Calm - N/A   Overcast
9:55 AM 44.6 °F - 42.8 °F 93% 30.39 in 10.0 mi Calm Calm - N/A   Overcast
10:15 AM 44.6 °F 40.2 °F 42.8 °F 93% 30.38 in 7.0 mi East 8.1 mph - N/A   Overcast
10:35 AM 44.6 °F 40.7 °F 42.8 °F 93% 30.37 in 7.0 mi East 6.9 mph - N/A   Overcast
10:55 AM 44.6 °F 40.7 °F 42.8 °F 93% 30.38 in 10.0 mi SE 6.9 mph - N/A   Overcast
11:15 AM 44.6 °F 40.7 °F 42.8 °F 93% 30.38 in 10.0 mi SE 6.9 mph - N/A   Overcast
11:35 AM 44.6 °F 39.7 °F 41.0 °F 87% 30.37 in 10.0 mi East 9.2 mph - N/A   Overcast
11:55 AM 44.6 °F 40.2 °F 41.0 °F 87% 30.35 in 10.0 mi East 8.1 mph - N/A   Overcast
12:15 PM 44.6 °F 41.4 °F 41.0 °F 87% 30.33 in 10.0 mi East 5.8 mph - N/A   Overcast
12:35 PM 44.6 °F 41.4 °F 42.8 °F 93% 30.32 in 10.0 mi ENE 5.8 mph - N/A   Overcast
12:55 PM 44.6 °F 43.1 °F 42.8 °F 93% 30.32 in 10.0 mi ENE 3.5 mph - N/A   Overcast
1:15 PM 44.6 °F 43.1 °F 41.0 °F 87% 30.32 in 10.0 mi SE 3.5 mph - N/A   Overcast
1:35 PM 46.4 °F 42.9 °F 42.8 °F 87% 30.31 in 10.0 mi NE 6.9 mph - N/A   Overcast
1:55 PM 46.4 °F 45.2 °F 42.8 °F 87% 30.30 in 10.0 mi ENE 3.5 mph - N/A   Overcast
2:15 PM 46.4 °F - 42.8 °F 87% 30.28 in 10.0 mi Calm Calm - N/A   Overcast
2:35 PM 46.4 °F 45.2 °F 42.8 °F 87% 30.28 in 10.0 mi ENE 3.5 mph - N/A   Overcast
2:55 PM 46.4 °F - 42.8 °F 87% 30.27 in 10.0 mi Calm Calm - N/A   Overcast
3:15 PM 46.4 °F - 44.6 °F 93% 30.27 in 10.0 mi Calm Calm - N/A   Overcast
3:35 PM 46.4 °F 45.2 °F 44.6 °F 93% 30.26 in 7.0 mi East 3.5 mph - N/A   Overcast
3:55 PM 48.2 °F - 44.6 °F 87% 30.26 in 10.0 mi Calm Calm - N/A   Overcast
4:15 PM 46.4 °F 45.2 °F 44.6 °F 93% 30.26 in 10.0 mi ENE 3.5 mph - N/A   Overcast
4:35 PM 46.4 °F 45.2 °F 44.6 °F 93% 30.26 in 5.0 mi East 3.5 mph - N/A   Overcast
4:55 PM 46.4 °F 43.5 °F 44.6 °F 93% 30.25 in 4.0 mi East 5.8 mph - N/A   Overcast
5:15 PM 46.4 °F 45.2 °F 44.6 °F 93% 30.25 in 4.0 mi NE 3.5 mph - N/A   Overcast
5:35 PM 44.6 °F 43.1 °F 44.6 °F 100% 30.25 in 5.0 mi NE 3.5 mph - N/A   Overcast
5:55 PM 44.6 °F 42.2 °F 44.6 °F 100% 30.25 in 5.0 mi NE 4.6 mph - N/A   Overcast
6:15 PM 44.6 °F 40.7 °F 44.6 °F 100% 30.25 in 5.0 mi NE 6.9 mph - N/A   Overcast
6:35 PM 44.6 °F 41.4 °F 44.6 °F 100% 30.26 in 5.0 mi NE 5.8 mph - N/A   Overcast
6:55 PM 44.6 °F 42.2 °F 44.6 °F 100% 30.25 in 5.0 mi NNE 4.6 mph - N/A   Overcast
7:15 PM 44.6 °F 42.2 °F 44.6 °F 100% 30.25 in 2.5 mi NE 4.6 mph - N/A   Overcast
7:35 PM 44.6 °F 41.4 °F 44.6 °F 100% 30.24 in 4.0 mi NE 5.8 mph - N/A   Overcast
7:55 PM 44.6 °F 42.2 °F 44.6 °F 100% 30.24 in 3.0 mi North 4.6 mph - N/A   Overcast
8:15 PM 42.8 °F 38.6 °F 42.8 °F 100% 30.24 in 3.0 mi North 6.9 mph - N/A   Overcast
8:35 PM 42.8 °F 41.1 °F 42.8 °F 100% 30.25 in 2.5 mi NNE 3.5 mph - N/A   Overcast
8:55 PM 42.8 °F 40.1 °F 42.8 °F 100% 30.25 in 2.5 mi NNE 4.6 mph - N/A   Overcast
9:15 PM 42.8 °F 39.3 °F 42.8 °F 100% 30.25 in 4.0 mi NNE 5.8 mph - N/A   Overcast
9:35 PM 42.8 °F 39.3 °F 42.8 °F 100% 30.25 in 4.0 mi NNE 5.8 mph - N/A   Overcast
9:55 PM 42.8 °F 40.1 °F 42.8 °F 100% 30.25 in 4.0 mi NNE 4.6 mph - N/A   Overcast
10:15 PM 42.8 °F 40.1 °F 42.8 °F 100% 30.25 in 4.0 mi NNE 4.6 mph - N/A   Overcast
10:35 PM 42.8 °F 38.6 °F 42.8 °F 100% 30.25 in 4.0 mi NNE 6.9 mph - N/A   Overcast
10:55 PM 42.8 °F 39.3 °F 42.8 °F 100% 30.25 in 4.0 mi NNE 5.8 mph - N/A   Overcast
11:15 PM 42.8 °F 40.1 °F 42.8 °F 100% 30.25 in 4.0 mi North 4.6 mph - N/A   Overcast
11:35 PM 41.0 °F 37.1 °F 41.0 °F 100% 30.24 in 3.0 mi North 5.8 mph - N/A   Overcast
11:55 PM 41.0 °F 39.0 °F 41.0 °F 100% 30.24 in 2.5 mi North 3.5 mph - N/A   Overcast